Home > Weather > Durban > Past weeks

Flag for South Africa Weather for the Past 2 Weeks in Durban, South Africa

Now
61 °F

Passing clouds.


Feels Like: 61 °F
Forecast: 57 / 73 °F
Wind: 2 mph from North

Location: King Shaka International Airport

Current Time: May 2, 2016 at 10:00:27 PM

Latest Report: May 2, 2016 at 9:00 PM


Visibility: N/A

Pressure: 30.09 "Hg

Humidity: 72%

Dew Point: 52 °F

Location of DurbanLocation

Historic Weather in Durban — Graph

°F

Durban Temperature Yesterday

Maximum temperature yesterday: 70 °F (at 3:00 PM)
Minimum temperature yesterday: 52 °F (at 6:00 AM)
Average temperature yesterday: 61 °F

High & Low Weather Summary for the Past Weeks

 TemperatureHumidityPressure
High95 °F (Apr 29, 11:00 AM)100% (Apr 29, 5:00 AM)30.30 "Hg (Apr 29, 5:00 AM)
Low48 °F (May 2, 6:00 AM)22% (Apr 29, 11:00 AM)29.53 "Hg (Apr 29, 2:00 PM)
Average70 °F74%30.00 "Hg
* Reported Apr 17 9:00 PM — May 2 9:00 PM, Durban, Weather by CustomWeather, © 2016

Note: Actual official high and low records may vary slightly from our data, if they occured in-between our weather recording intervals... More about our weather records

Advertising

Durban Weather History for the Previous 24 Hours

Scroll right to see more
 ConditionsComfort  
Time TempWeatherWind HumidityBarometerVisibility
9:00 PM
Mon, May 2
61 °FPassing clouds.2 mph72%30.09 "HgN/A
8:00 PM63 °FPassing clouds.3 mph68%30.09 "HgN/A
7:00 PM63 °FClear.1 mph68%30.07 "Hg10 mi
6:00 PM66 °FClear.3 mph56%30.07 "Hg10 mi
5:00 PM72 °FClear.3 mph47%30.04 "Hg10 mi
4:00 PM73 °FPassing clouds.7 mph47%30.04 "HgN/A
3:00 PM75 °FPassing clouds.9 mph36%30.04 "HgN/A
2:00 PM77 °FPassing clouds.10 mph39%30.04 "HgN/A
1:00 PM75 °FPassing clouds.9 mph44%30.04 "HgN/A
12:00 PM75 °FPassing clouds.8 mph44%30.07 "HgN/A
11:00 AM75 °FPassing clouds.8 mph41%30.09 "HgN/A
10:00 AM72 °FSunny.9 mph47%30.09 "Hg10 mi
9:00 AM66 °FSunny.5 mph60%30.09 "Hg10 mi
8:00 AM59 °FSunny.2 mph77%30.09 "Hg10 mi
7:00 AM50 °FSunny.2 mph94%30.07 "Hg10 mi
6:00 AM48 °FSunny.1 mph94%30.04 "Hg10 mi
5:00 AM50 °FClear.1 mph94%30.04 "Hg10 mi
4:00 AM52 °FClear.3 mph88%30.04 "Hg10 mi
3:00 AM54 °FClear.3 mph88%30.04 "Hg10 mi
2:00 AM54 °FPassing clouds.5 mph94%30.07 "HgN/A
12:00 AM55 °FClear.1 mph82%30.09 "Hg10 mi
11:00 PM
Sun, May 1
57 °FPassing clouds.3 mph82%30.09 "HgN/A
10:00 PM57 °FClear.5 mph82%30.12 "Hg10 mi
Weather by CustomWeather, © 2016

See weather overviewHow to use our weather pages